Regional Weather Roundup
Issued by NWS

Home | Current Version | Previous Version | Graphics & Text | Print | Product List | Glossary On
Versions: 1 2 3 4 5 6 7 8 9 10 11 12 13 14 15 16 17 18 19 20 21 22 23 24 25 26 27 28 29 30 31 32 33 34 35 36 37 38 39 40 41 42 43 44 45 46 47 48 49 50
711
ASUS43 KLOT 230603
RWRIL

ILLINOIS REGIONAL WEATHER ROUNDUP
NATIONAL WEATHER SERVICE CHICAGO/ROMEOVILLE IL
1200 AM CST MON JAN 23 2017

NOTE: "FAIR" INDICATES FEW OR NO CLOUDS BELOW 12,000 FEET WITH NO
SIGNIFICANT WEATHER AND/OR OBSTRUCTIONS TO VISIBILITY.

* THESE STATIONS ARE NOT UNDER NWS QUALITY CONTROL. THEY ALSO MAY NOT
  REPORT WEATHER SUCH AS PRECIPITATION OR FOG.

ILZ001-002-007-009-015-016-024-230700-
NORTHWEST ILLINOIS

CITY           SKY/WX    TMP DP  RH WIND       PRES   REMARKS
MOLINE         CLOUDY    38  34  85 NW9       29.77S WCI  31
6HR MIN TEMP:  35; 6HR MAX TEMP:  40;

STERLING*      CLOUDY    37  36  96 NW5       29.76S WCI  33
SAVANNA*       CLOUDY    37  35  94 NW5       29.76F WCI  33
$$

ILZ003-004-008-010-011-017-018-230700-
NORTH CENTRAL ILLINOIS

CITY           SKY/WX    TMP DP  RH WIND       PRES   REMARKS
ROCKFORD       LGT RAIN  38  35  89 N7        29.76S FOG     WCI  33
6HR MIN TEMP:  36; 6HR MAX TEMP:  39; 6HR PCP: TRACE;

FREEPORT*      CLOUDY    37  35  94 N6        29.76F WCI  32
ROCHELLE*      CLOUDY    37  36  96 N7        29.74S FOG     WCI  31
DE KALB*       CLOUDY    37  36  96 N8        29.72F FOG     WCI  30
PERU*          CLOUDY    36  34  94 NW9       29.74S FOG     WCI  29
$$

ILZ005-006-012>014-019>023-230700-
NORTHEAST ILLINOIS

CITY           SKY/WX    TMP DP  RH WIND       PRES   REMARKS
CHICAGO-OHARE  CLOUDY    39  37  92 N9        29.70R WCI  33
6HR MIN TEMP:  39; 6HR MAX TEMP:  41;

CHICAGO-MIDWAY CLOUDY    40  36  86 N9G22     29.69R
6HR MIN TEMP:  40; 6HR MAX TEMP:  43;

AURORA         CLOUDY    38  35  89 N12       29.72R WCI  30
6HR MIN TEMP:  38; 6HR MAX TEMP:  40;

LANSING*       CLOUDY    39  38  97 N7        29.68S WCI  34
JOLIET*        CLOUDY    41  39  93 NW6       29.70S FOG
WAUKEGAN       FOG       36  36 100 NW3       29.71S VSB 1/4
6HR MIN TEMP:  36; 6HR MAX TEMP:  41;

DUPAGE AIRPORT CLOUDY    39  35  86 NW10      29.70S WCI  32
6HR MIN TEMP:  38; 6HR MAX TEMP:  39;

WHEELING       CLOUDY    38  37  97 N12       29.72R FOG     WCI  30
6HR MIN TEMP:  38; 6HR MAX TEMP:  41;

MORRIS*        CLOUDY    38  37  92 N5        29.70S WCI  35
ROMEOVILLE*    CLOUDY    40  39  99 N8        29.70S
NORTHERLY ISL    N/A     36  35  96 N14         N/A  WCI  27
$$

LMZ740>746-230700-
SOUTHERN LAKE MICHIGAN

STATION/POSITION SKY/WX   TEMP    WIND        PRES    VSBY  WAVE
                          AIR SEA DIR/SP/G                  HT/PER
                          (F)     (DEG/KT/KT) (MB)    (MI)  (FT/S)
HARRISON CRIB              36     350/ 13/ 14   N/A
BURNHAM HARBOR             36     340/  8/ 15   N/A
CALUMET HARBOR             36     330/ 11/ 15 1004.9R
BURNS HARBOR               36     350/  6/  8 1005.8R
MICHIGAN CITY              37     350/ 10/ 10   N/A
$$

ILZ025>027-034>036-040-047-049-050-058-095>099-230700-
WEST-CENTRAL ILLINOIS

CITY           SKY/WX    TMP DP  RH WIND       PRES   REMARKS
QUINCY         CLOUDY    38  36  92 NW13      29.78S WCI  30
GALESBURG*     CLOUDY    35  35 100 NW5       29.77  FOG     WCI  31
MACOMB*        CLOUDY    36  35  97 NW10      29.79S FOG     WCI  28
JACKSONVILLE*  CLOUDY    37  35  91 NW12      29.75S WCI  29
PITTSFIELD*    DRIZZLE   38  36  93 NW10      29.78F WCI  30
$$

ILZ028>032-037-038-041>044-048-051>054-059>061-230700-
CENTRAL ILLINOIS

CITY           SKY/WX    TMP DP  RH WIND       PRES   REMARKS
BLOOMINGTON    CLOUDY    37  36  96 NW14      29.70S FOG     WCI  28
DECATUR        CLOUDY    40  38  93 NW15      29.68S
PEORIA         CLOUDY    39  35  86 N8        29.74R WCI  33
6HR MIN TEMP:  39; 6HR MAX TEMP:  41;

SPRINGFIELD    CLOUDY    40  37  89 NW12      29.73S FOG
6HR MIN TEMP:  40; 6HR MAX TEMP:  44;

TAYLORVILLE    CLOUDY    39  36  91 NW15      29.71R WCI  30
6HR MIN TEMP:  39; 6HR MAX TEMP:  44;

$$

ILZ033-039-045-046-055>057-062-063-230700-
EAST-CENTRAL ILLINOIS

CITY           SKY/WX    TMP DP  RH WIND       PRES   REMARKS
CHAMPAIGN      MOCLDY    41  38  89 NW20      29.62F
MATTOON        CLOUDY    41  39  93 N15       29.61S FOG
PARIS*         CLOUDY    42  41  97 N9G18     29.60S FOG
$$

ILZ079-100>102-230700-
SOUTHWEST ILLINOIS

CITY           SKY/WX    TMP DP  RH WIND       PRES   REMARKS
BELLEVILLE     CLOUDY    41  38  89 NW20G26   29.68R
CAHOKIA*       LGT RAIN  41  35  79 NW18      29.73R
SPARTA*        CLOUDY    42  37  80 NW18G25   29.67S
$$

ILZ064>066-069>071-074>076-080>082-084>086-088>090-092>094-230700-
SOUTH-CENTRAL ILLINOIS

CITY           SKY/WX    TMP DP  RH WIND       PRES   REMARKS
CARBONDALE     MOCLDY    43  38  82 NW14G25   29.62R
6HR MIN TEMP:  43; 6HR MAX TEMP:  53; 6HR PCP: TRACE;

CAIRO*         CLEAR     45  40  82 NW21      29.57R
MARION         CLOUDY    45  41  87 NW13G24   29.61R
MT. VERNON     CLOUDY    43  38  82 VRB7G18   29.60S
CENTRALIA*     PTCLDY    42  39  88 NW14G20   29.63R
SALEM*         CLOUDY    43  38  83 N18G25    29.63R
$$

ILZ067-068-072-073-078-083-087-091-230700-
SOUTHEAST ILLINOIS

CITY           SKY/WX    TMP DP  RH WIND       PRES   REMARKS
LAWRENCEVILLE  CLOUDY    48  47  96 N17       29.54S
FLORA*         CLOUDY    46  43  90 N14G24    29.59S FOG
HARRISBURG*    CLOUDY    47  43  87 NW17      29.56S
ROBINSON*      CLOUDY    46  44  93 N16       29.56S
CARMI*         CLOUDY    47  45  91 NW20      29.53S
$$

ABBREVIATIONS USED IN REMARKS
   TC - TEMPERATURE IN CELSIUS
  WCI - WIND CHILL INDEX
   HX - HEAT INDEX
  VSB - VISIBILITY
$$





USA.gov is the U.S. government's official web portal to all federal, state and local government web resources and services.